{"data":{"norad_id":68162,"intl_designator":"2026-049W","name":"STARLINK-37013","alt_names":[],"object_type":"PAYLOAD","status":"ACTIVE","operator":null,"country":"US","launch_date":"2026-03-13","launch_site_code":"AFWTR","launch_vehicle":null,"mission":null,"orbit_class":"UNKNOWN","rcs_meters":null,"size_class":null,"mass_kg":null,"dimensions":null,"purposes":["comms"],"wikipedia_slug":null,"has_3d_model":false,"image_url":null,"decayed_at":null,"tle_current":{"epoch":"2026-05-25T00:27:09.822816Z","epoch_age_seconds":73377,"freshness":"FRESH","line1":"1 68162U 26049W   26145.01886369  .00008631  00000+0  26938-3 0  9991","line2":"2 68162  97.2862 166.6586 0000501 331.5722  28.5494 15.33443038 11341","mean_motion":15.33443038,"eccentricity":5.01e-5,"inclination_deg":97.2862,"raan_deg":166.6586,"arg_perigee_deg":331.5722,"mean_anomaly_deg":28.5494,"bstar":0.00026938,"rev_number":1134,"period_min":93.906324807352,"perigee_km":465.20614334677,"apogee_km":465.89188068517,"semimajor_km":6843.686012016,"source":"CELESTRAK","updated_at":"2026-05-25T13:38:21.850753Z"}}}